Altus AFB, OK

12:06 PM CDT on June 29, 2017 (GMT -0500)
Altus Air Force Base

Weather History for KLTS - October, 2012

Change the Weather History Date:

Friday, October 26, 2012

  Actual Average Record
Temperature  
Mean Temperature 44 °F -  
Max Temperature 53 °F 68 °F 91 °F (2014)
Min Temperature 36 °F 47 °F 33 °F (1997)
Degree Days  
Heating Degree Days 20    
Moisture  
Dew Point 28 °F    
Average Humidity 59    
Maximum Humidity 77    
Minimum Humidity 31    
Precipitation  
Precipitation 0.00 in - - ()
Sea Level Pressure  
Sea Level Pressure 30.37 in    
Wind  
Wind Speed 15 mph (NNE)    
Max Wind Speed 26 mph    
Max Gust Speed 31 mph    
Visibility 10 miles    
Events      
Averages and records for this station are not official NWS values.
T = Trace of Precipitation, MM = Missing Value Source: NWS Daily Summary

Daily Weather History Graph

Daily Weather History Graph

Search for Another Location

Airport or City:

Trip Planner

Search our weather history database for the weather conditions in past years. The results will help you decide how hot, cold, wet, or windy it might be!

Date:

Astronomy

Oct. 26, 2012 Rise Set
Actual Time 7:52 AM CDT 6:48 PM CDT
Civil Twilight 7:26 AM CDT 7:14 PM CDT
Nautical Twilight 6:57 AM CDT 7:44 PM CDT
Astronomical Twilight 6:27 AM CDT 8:13 PM CDT
Moon 5:00 PM CDT (10/26) 4:56 AM CDT (10/26)
Length of Visible Light 11h 47m
Length of Day
10h 56m
Waxing Gibbous, 91% of the Moon is Illuminated
Oct 26
Waxing Gibbous
Oct 29
Full
Nov 6
Last Quarter
Nov 13
New
Nov 20
First Quarter

Hourly Weather History & Observations

Time (CDT) Temp. Windchill Dew Point Humidity Pressure Visibility Wind Dir Wind Speed Gust Speed Precip Events Conditions
12:55 AM 44.8 °F 39.0 °F 33.4 °F 64% 30.24 in 10.0 mi North 11.5 mph - N/A   Clear
1:55 AM 42.6 °F 36.8 °F 33.3 °F 69% 30.26 in 10.0 mi North 10.4 mph - N/A   Clear
2:55 AM 42.3 °F 36.3 °F 32.5 °F 68% 30.26 in 10.0 mi NNE 10.4 mph - N/A   Clear
3:55 AM 40.8 °F 34.5 °F 32.4 °F 72% 30.27 in 10.0 mi North 10.4 mph - N/A   Clear
4:55 AM 39.9 °F 32.5 °F 32.0 °F 73% 30.28 in 10.0 mi North 12.7 mph - N/A   Clear
5:55 AM 38.7 °F 31.4 °F 31.8 °F 76% 30.30 in 10.0 mi North 11.5 mph - N/A   Clear
6:55 AM 38.5 °F 29.2 °F 31.3 °F 75% 30.32 in 10.0 mi North 17.3 mph - N/A   Clear
7:55 AM 36.7 °F 28.4 °F 29.7 °F 76% 30.35 in 10.0 mi North 12.7 mph 19.6 mph N/A   Clear
8:55 AM 36.7 °F 27.2 °F 30.2 °F 77% 30.40 in 10.0 mi NNE 16.1 mph - N/A   Clear
9:11 AM 37.4 °F 26.4 °F 30.2 °F 75% 30.42 in 10.0 mi NNE 23.0 mph - N/A   Mostly Cloudy
9:44 AM 39.2 °F 29.0 °F 30.2 °F 70% 30.43 in 10.0 mi NNE 21.9 mph 29.9 mph N/A   Overcast
9:55 AM 38.5 °F 27.1 °F 29.5 °F 70% 30.44 in 10.0 mi NNE 26.5 mph - N/A   Mostly Cloudy
9:57 AM 39.2 °F 28.3 °F 30.2 °F 70% 30.44 in 10.0 mi NNE 25.3 mph - N/A   Scattered Clouds
10:55 AM 41.0 °F 31.1 °F 29.1 °F 63% 30.45 in 10.0 mi North 23.0 mph 31.1 mph N/A   Clear
11:55 AM 43.2 °F 34.5 °F 28.2 °F 56% 30.44 in 10.0 mi North 20.7 mph 29.9 mph N/A   Clear
12:55 PM 46.8 °F - 27.7 °F 47% 30.42 in 10.0 mi North 23.0 mph 27.6 mph N/A   Clear
1:55 PM 49.1 °F - 27.5 °F 43% 30.39 in 10.0 mi NNE 18.4 mph 27.6 mph N/A   Clear
2:55 PM 51.4 °F - 25.2 °F 36% 30.38 in 10.0 mi North 23.0 mph 28.8 mph N/A   Clear
3:55 PM 53.1 °F - 24.3 °F 33% 30.36 in 10.0 mi North 17.3 mph - N/A   Clear
4:55 PM 52.9 °F - 23.0 °F 31% 30.35 in 10.0 mi NNE 18.4 mph - N/A   Clear
5:55 PM 51.8 °F - 23.4 °F 33% 30.36 in 10.0 mi North 15.0 mph - N/A   Clear
6:55 PM 47.7 °F - 23.9 °F 39% 30.37 in 10.0 mi NNE 10.4 mph - N/A   Clear
7:55 PM 40.6 °F 36.0 °F 25.0 °F 54% 30.40 in 10.0 mi NNE 6.9 mph - N/A   Clear
8:55 PM 43.0 °F 36.4 °F 23.9 °F 47% 30.41 in 10.0 mi NNE 12.7 mph - N/A   Clear
9:55 PM 40.3 °F 33.9 °F 23.9 °F 52% 30.41 in 10.0 mi NNE 10.4 mph - N/A   Clear
10:55 PM 38.7 °F 30.5 °F 23.9 °F 55% 30.41 in 10.0 mi NNE 13.8 mph - N/A   Clear
11:55 PM 36.1 °F 32.3 °F 24.1 °F 62% 30.41 in 10.0 mi NE 4.6 mph - N/A   Clear